| time (UTC) | temp C | wind direction | speed KPH | gust KPH | rain 1hr cm | rain 24hr cm | rain mn cm | humidity % | barometer mb |
| 20260504004003 | 25 | 150 | 17.7 | 37.0 | 0.00 | 0.00 | 0.00 | 70 | 1018.1 |
| 20260504003003 | 25 | 158 | 14.5 | 32.2 | 0.00 | 0.00 | 0.00 | 68 | 1018.0 |
| 20260504002003 | 25 | 155 | 11.3 | 46.7 | 0.00 | 0.00 | 0.00 | 68 | 1017.9 |
| 20260504000003 | 26 | 158 | 17.7 | 40.2 | 0.00 | 0.00 | 0.00 | 64 | 1017.9 |
| 20260503235003 | 26 | 143 | 24.1 | 41.8 | 0.00 | 0.00 | 0.00 | 63 | 1017.8 |
| 20260503234004 | 26 | 147 | 11.3 | 41.8 | 0.00 | 0.00 | 0.00 | 61 | 1018.1 |
| 20260503233003 | 26 | 167 | 16.1 | 35.4 | 0.00 | 0.00 | 0.00 | 62 | 1017.9 |
| 20260503232003 | 27 | 153 | 20.9 | 35.4 | 0.00 | 0.00 | 0.00 | 56 | 1018.0 |
| 20260503231003 | 27 | 182 | 20.9 | 37.0 | 0.00 | 0.00 | 0.00 | 56 | 1017.9 |
| 20260503230004 | 28 | 163 | 14.5 | 29.0 | 0.00 | 0.00 | 0.00 | 51 | 1018.0 |
| 20260503225003 | 28 | 199 | 11.3 | 35.4 | 0.00 | 0.00 | 0.00 | 54 | 1018.0 |
| 20260503224004 | 28 | 162 | 11.3 | 29.0 | 0.00 | 0.00 | 0.00 | 51 | 1017.9 |
| 20260503223004 | 28 | 143 | 12.9 | 32.2 | 0.00 | 0.00 | 0.00 | 56 | 1018.1 |
| 20260503221003 | 29 | 218 | 9.7 | 32.2 | 0.00 | 0.00 | 0.00 | 50 | 1018.2 |
| 20260503220003 | 29 | 163 | 4.8 | 32.2 | 0.00 | 0.00 | 0.00 | 50 | 1018.2 |
| 20260503215008 | 30 | 211 | 6.4 | 20.9 | 0.00 | 0.00 | 0.00 | 48 | 1018.1 |
| 20260503214004 | 30 | 241 | 4.8 | 25.7 | 0.00 | 0.00 | 0.00 | 44 | 1018.2 |
| 20260503213003 | 29 | 140 | 11.3 | 24.1 | 0.00 | 0.00 | 0.00 | 47 | 1018.4 |
| 20260503212003 | 30 | 196 | 4.8 | 22.5 | 0.00 | 0.00 | 0.00 | 47 | 1018.4 |
| 20260503211004 | 30 | 203 | 9.7 | 24.1 | 0.00 | 0.00 | 0.00 | 42 | 1018.6 |
| 20260503210003 | 30 | 178 | 6.4 | 24.1 | 0.00 | 0.00 | 0.00 | 43 | 1018.6 |
| 20260503205004 | 30 | 197 | 11.3 | 20.9 | 0.00 | 0.00 | 0.00 | 43 | 1018.7 |
| 20260503204003 | 29 | 74 | 8.0 | 24.1 | 0.00 | 0.00 | 0.00 | 45 | 1019.0 |
| 20260503203004 | 30 | 150 | 6.4 | 24.1 | 0.00 | 0.00 | 0.00 | 45 | 1019.2 |
| 20260503202003 | 29 | 169 | 9.7 | 27.4 | 0.00 | 0.00 | 0.00 | 47 | 1019.2 |
| 20260503201003 | 29 | 106 | 11.3 | 25.7 | 0.00 | 0.00 | 0.00 | 49 | 1019.2 |
| 20260503200004 | 29 | 143 | 11.3 | 32.2 | 0.00 | 0.00 | 0.00 | 49 | 1019.2 |
| 20260503195005 | 30 | 135 | 4.8 | 20.9 | 0.00 | 0.00 | 0.00 | 46 | 1019.5 |
| 20260503194003 | 29 | 148 | 8.0 | 20.9 | 0.00 | 0.00 | 0.00 | 43 | 1019.6 |
| 20260503193004 | 30 | 185 | 3.2 | 27.4 | 0.00 | 0.00 | 0.00 | 46 | 1019.6 |
| 20260503192003 | 29 | 243 | 4.8 | 16.1 | 0.00 | 0.00 | 0.00 | 42 | 1019.9 |
| 20260503190003 | 28 | 125 | 14.5 | 22.5 | 0.00 | 0.00 | 0.00 | 43 | 1020.2 |
| 20260503184004 | 27 | 196 | 8.0 | 19.3 | 0.00 | 0.00 | 0.00 | 50 | 1020.4 |
| 20260503183004 | 28 | 171 | 8.0 | 24.1 | 0.00 | 0.00 | 0.00 | 50 | 1020.5 |
| 20260503181004 | 27 | 162 | 9.7 | 19.3 | 0.00 | 0.00 | 0.00 | 51 | 1020.9 |
| 20260503180004 | 27 | 180 | 4.8 | 19.3 | 0.00 | 0.00 | 0.00 | 54 | 1021.0 |
| 20260503175004 | 26 | 173 | 4.8 | 19.3 | 0.00 | 0.00 | 0.00 | 53 | 1021.0 |
| 20260503174003 | 26 | 246 | 4.8 | 24.1 | 0.00 | 0.00 | 0.00 | 57 | 1021.0 |
| 20260503173003 | 27 | 170 | 4.8 | 16.1 | 0.00 | 0.00 | 0.00 | 55 | 1021.1 |
| 20260503172004 | 26 | 248 | 8.0 | 14.5 | 0.00 | 0.00 | 0.00 | 60 | 1021.2 |
| 20260503171003 | 25 | 166 | 6.4 | 14.5 | 0.00 | 0.00 | 0.00 | 62 | 1021.2 |
| 20260503131004 | 18 | 12 | 0.0 | 3.2 | 0.00 | 0.00 | 0.00 | 91 | 1020.5 |
| 20260503081004 | 17 | 26 | 1.6 | 8.0 | 0.00 | 0.00 | 0.00 | 94 | 1019.4 |
| 20260503072004 | 17 | 108 | 4.8 | 8.0 | 0.00 | 0.00 | 0.00 | 93 | 1019.8 |
| 20260503071008 | 17 | 87 | 3.2 | 3.2 | 0.00 | 0.00 | 0.00 | 93 | 1019.7 |
| 20260503055003 | 18 | 153 | 1.6 | 8.0 | 0.00 | 0.00 | 0.00 | 90 | 1020.1 |
| 20260503054004 | 19 | 161 | 1.6 | 12.9 | 0.00 | 0.00 | 0.00 | 90 | 1020.1 |
| 20260503053004 | 19 | 125 | 4.8 | 12.9 | 0.00 | 0.00 | 0.00 | 90 | 1020.3 |
| 20260503052003 | 19 | 171 | 1.6 | 9.7 | 0.00 | 0.00 | 0.00 | 90 | 1020.3 |
| 20260503051004 | 19 | 216 | 4.8 | 9.7 | 0.00 | 0.00 | 0.00 | 90 | 1020.3 |
| 20260503050004 | 19 | 192 | 1.6 | 8.0 | 0.00 | 0.00 | 0.00 | 90 | 1020.2 |
| 20260503045004 | 19 | 190 | 3.2 | 11.3 | 0.00 | 0.00 | 0.00 | 90 | 1020.2 |
| 20260503044004 | 19 | 189 | 3.2 | 12.9 | 0.00 | 0.00 | 0.00 | 90 | 1020.1 |
| 20260503043004 | 19 | 169 | 1.6 | 9.7 | 0.00 | 0.00 | 0.00 | 90 | 1019.9 |
| 20260503042004 | 19 | 293 | 3.2 | 14.5 | 0.00 | 0.00 | 0.00 | 90 | 1020.0 |
| 20260503041004 | 19 | 174 | 3.2 | 9.7 | 0.00 | 0.00 | 0.00 | 90 | 1019.8 |
| 20260503040003 | 19 | 215 | 0.0 | 14.5 | 0.00 | 0.00 | 0.00 | 89 | 1019.8 |
| 20260503035003 | 19 | 248 | 0.0 | 14.5 | 0.00 | 0.00 | 0.00 | 89 | 1019.6 |
| 20260503034004 | 19 | 126 | 3.2 | 20.9 | 0.00 | 0.00 | 0.00 | 89 | 1019.3 |
| 20260503033004 | 19 | 131 | 8.0 | 29.0 | 0.00 | 0.00 | 0.00 | 89 | 1019.2 |
| 20260503032004 | 19 | 158 | 4.8 | 32.2 | 0.00 | 0.00 | 0.00 | 89 | 1019.0 |
| 20260503031004 | 20 | 148 | 11.3 | 32.2 | 0.00 | 0.00 | 0.00 | 88 | 1018.9 |
| 20260503025004 | 20 | 152 | 9.7 | 32.2 | 0.00 | 0.00 | 0.00 | 86 | 1018.7 |
| 20260503024004 | 20 | 161 | 8.0 | 29.0 | 0.00 | 0.00 | 0.00 | 86 | 1018.5 |
| 20260503023003 | 20 | 169 | 9.7 | 35.4 | 0.00 | 0.00 | 0.00 | 86 | 1018.3 |
| 20260503021003 | 20 | 134 | 16.1 | 40.2 | 0.00 | 0.00 | 0.00 | 85 | 1018.1 |
| 20260503020004 | 20 | 156 | 27.4 | 38.6 | 0.00 | 0.00 | 0.00 | 85 | 1017.7 |
| 20260503015004 | 20 | 170 | 17.7 | 38.6 | 0.00 | 0.00 | 0.00 | 84 | 1017.6 |
| 20260503012004 | 21 | 168 | 17.7 | 49.9 | 0.00 | 0.00 | 0.00 | 84 | 1017.2 |
| 20260503011005 | 21 | 138 | 22.5 | 48.3 | 0.00 | 0.00 | 0.00 | 82 | 1017.1 |
| 20260503010004 | 22 | 159 | 19.3 | 51.5 | 0.00 | 0.00 | 0.00 | 80 | 1016.8 |